カタログに戻る

STARLINK-32244

運用中通信VLEO
NORAD 60411·PAYLOAD·🇺🇸 United States

打ち上げ Aug 10, 2024 から Cape Canaveral Space Force Station

Loading…

次のパス (今後24時間)

TLE

最新Source: CelesTrak SupGP

元期: Sep 14, 2026, 14:50 UTC

1 60411C 24141P   26257.61854167 -.00028853  00000+0 -92694-3 0  2571
2 60411  53.1578  83.7857 0001236  99.7549 275.7896 15.31747037    19

AllMySatでSTARLINK-32244をリアルタイム追跡

Download on the App Store